Location: Allen Fire Department Station 4
(33.1073°N, 96.6988°W)
Time: 10:44:52
(UTC+00:00)

SJ 16-02 - Pass Details

Date: 03 December 2021
Orbit: 605 x 616 km, 75.0° (Epoch: 24 January)

Event Time Altitude Azimuth Distance (km) Brightness Sun altitude
Rises 12:24:15 0° 193° (SSW) 2,851 4.9 -10.4°
Reaches altitude 10° 12:26:28 10° 193° (SSW) 1,949 4.0 -10.0°
Maximum altitude 12:30:49 86° 107° (ESE) 612 1.4 -9.1°
Drops below altitude 10° 12:35:12 10° 16° (NNE) 1,957 3.9 -8.3°
Sets 12:37:26 0° 16° (NNE) 2,863 4.7 -7.8°
